EW7119 Weather Reports


time (UTC)temp
C
wind
direction
speed
KPH
gust
KPH
rain 1hr
cm
rain 24hr
cm
rain mn
cm
humidity
%
barometer
mb
20260906044558 17 145 0.0 8.0 0.00 0.00 0.00 50 1002.8
20260906043112 17 147 0.0 9.7 0.00 0.00 0.00 50 1002.8
20260906041502 15 178 0.0 0.0 0.00 0.00 0.00 53 1003.0
20260906040010 15 176 0.0 0.0 0.00 0.00 0.00 54 1002.8
20260906034520 15 184 0.0 0.0 0.00 0.00 0.00 53 1002.9
20260906033039 16 186 0.0 0.0 0.00 0.00 0.00 50 1002.8
20260906031532 17 186 0.0 0.0 0.00 0.00 0.00 47 1002.8
20260906030113 17 186 0.0 0.0 0.00 0.00 0.00 45 1002.5
20260906024610 17 242 0.0 0.0 0.00 0.00 0.00 44 1002.2
20260906023132 18 126 0.0 1.6 0.00 0.00 0.00 43 1002.0
20260906021615 18 148 0.0 0.0 0.00 0.00 0.00 43 1001.9
20260906020104 18 137 0.0 9.7 0.00 0.00 0.00 43 1001.7
20260906014626 18 131 0.0 17.7 0.00 0.00 0.00 43 1001.6
20260906013108 18 145 0.0 12.9 0.00 0.00 0.00 44 1001.6
20260906011604 19 147 0.0 17.7 0.00 0.00 0.00 43 1001.6
20260906010106 20 154 0.0 16.1 0.00 0.00 0.00 42 1001.5
20260906004614 20 146 1.6 22.5 0.00 0.00 0.00 39 1001.5
20260906003055 21 122 0.0 17.7 0.00 0.00 0.00 37 1001.6
20260906001559 20 136 0.0 1.6 0.00 0.00 0.00 40 1001.5
20260906000114 20 126 0.0 12.9 0.00 0.00 0.00 39 1001.7
20260905234511 21 148 0.0 17.7 0.00 0.00 0.00 39 1001.5
20260905233041 21 140 0.0 16.1 0.00 0.00 0.00 38 1001.4
20260905231530 21 141 0.0 16.1 0.00 0.00 0.00 40 1001.2
20260905230049 21 121 1.6 20.9 0.00 0.00 0.00 39 1001.3
20260905224607 21 160 0.0 1.6 0.00 0.00 0.00 39 1001.4
20260905223054 21 134 1.6 14.5 0.00 0.00 0.00 39 1001.4
20260905221559 22 97 0.0 4.8 0.00 0.00 0.00 38 1001.5
20260905220003 22 169 1.6 19.3 0.00 0.00 0.00 36 1001.6
20260905214513 22 148 0.0 17.7 0.00 0.00 0.00 38 1001.4
20260905213107 20 140 3.2 22.5 0.00 0.00 0.00 40 1001.6
20260905211611 21 109 1.6 22.5 0.00 0.00 0.00 38 1001.9
20260905210009 22 134 0.0 16.1 0.00 0.00 0.00 37 1001.9
20260905204555 22 142 0.0 0.0 0.00 0.00 0.00 35 1002.0
20260905203103 22 299 0.0 0.0 0.00 0.00 0.00 34 1002.1
20260905201611 22 320 0.0 0.0 0.00 0.00 0.00 33 1002.0
20260905200005 22 319 0.0 0.0 0.00 0.00 0.00 31 1002.0
20260905194517 23 317 0.0 0.0 0.00 0.00 0.00 30 1002.0
20260905193041 23 227 0.0 0.0 0.00 0.00 0.00 30 1002.2
20260905191535 22 305 0.0 1.6 0.00 0.00 0.00 32 1002.3
20260905190039 22 282 0.0 0.0 0.00 0.00 0.00 33 1002.4
20260905184554 23 277 0.0 0.0 0.00 0.00 0.00 32 1002.5
20260905183105 23 294 0.0 0.0 0.00 0.00 0.00 30 1002.7
20260905181516 23 154 0.0 0.0 0.00 0.00 0.00 31 1003.0
20260905180104 23 332 0.0 0.0 0.00 0.00 0.00 30 1003.3
20260905174601 23 292 0.0 0.0 0.00 0.00 0.00 32 1003.4
20260905173050 22 277 0.0 0.0 0.00 0.00 0.00 33 1003.5
20260905171551 21 242 0.0 0.0 0.00 0.00 0.00 34 1003.6
20260905170004 21 0.0 526.3 8.31 8.31 0.00 34 1003.7
20260905164519 21 265 0.0 0.0 0.00 0.00 0.00 38 1003.6
20260905163135 20 296 0.0 0.0 0.00 0.00 0.00 37 1003.6
20260905161550 20 26 0.0 0.0 0.00 0.00 0.00 39 1003.7
20260905160106 19 24 0.0 0.0 0.00 0.00 0.00 41 1003.7
20260905154554 18 39 0.0 0.0 0.00 0.00 0.00 44 1003.7
20260905153111 17 322 0.0 0.0 0.00 0.00 0.00 45 1003.7
20260905151610 16 351 0.0 0.0 0.00 0.00 0.00 47 1003.8
20260905150004 16 38 0.0 0.0 0.00 0.00 0.00 50 1003.9
20260905144521 16 38 0.0 0.0 0.00 0.00 0.00 48 1003.9
20260905143041 16 319 0.0 0.0 0.00 0.00 0.00 49 1003.9
20260905141532 16 318 0.0 0.0 0.00 0.00 0.00 50 1003.7
20260905140022 15 79 0.0 0.0 0.00 0.00 0.00 53 1003.7
20260905134548 14 59 0.0 0.0 0.00 0.00 0.00 54 1003.5
20260905133107 13 82 0.0 0.0 0.00 0.00 0.00 58 1003.6
20260905131612 13 82 0.0 0.0 0.00 0.00 0.00 59 1003.5
20260905130013 13 25 0.0 0.0 0.00 0.00 0.00 57 1003.5
20260905124517 13 75 0.0 6.4 0.00 0.00 0.00 59 1003.3
20260905123016 13 63 0.0 0.0 0.00 0.00 0.00 59 1003.1
20260905121550 13 88 0.0 0.0 0.00 0.00 0.00 61 1003.0
20260905120049 12 142 0.0 0.0 0.00 0.00 0.00 65 1003.0
20260905114555 12 141 0.0 0.0 0.00 0.00 0.00 66 1003.0
20260905113008 11 142 0.0 0.0 0.00 0.00 0.00 67 1003.0
20260905111601 11 142 0.0 0.0 0.00 0.00 0.00 66 1003.1
20260905110100 11 141 0.0 0.0 0.00 0.00 0.00 67 1003.0
20260905104506 11 142 0.0 0.0 0.00 0.00 0.00 67 1003.0
20260905103111 11 141 0.0 0.0 0.00 0.00 0.00 66 1002.9
20260905101508 12 141 0.0 0.0 0.00 0.00 0.00 65 1002.7
20260905100019 12 141 0.0 0.0 0.00 0.00 0.00 65 1002.7
20260905094531 12 141 0.0 0.0 0.00 0.00 0.00 64 1002.7
20260905093010 12 141 0.0 0.0 0.00 0.00 0.00 63 1002.6
20260905091502 12 141 0.0 0.0 0.00 0.00 0.00 63 1002.6
20260905090112 12 141 0.0 0.0 0.00 0.00 0.00 62 1002.6
20260905084620 13 141 0.0 0.0 0.00 0.00 0.00 60 1002.6
20260905083055 14 141 0.0 0.0 0.00 0.00 0.00 58 1002.8
20260905081552 14 141 0.0 0.0 0.00 0.00 0.00 57 1002.8
20260905080058 15 141 0.0 0.0 0.00 0.00 0.00 55 1002.7
20260905074604 15 141 0.0 0.0 0.00 0.00 0.00 53 1002.6
20260905073106 15 141 0.0 0.0 0.00 0.00 0.00 53 1002.6
20260905071547 15 141 0.0 0.0 0.00 0.00 0.00 52 1002.6
20260905070048 16 141 0.0 0.0 0.00 0.00 0.00 50 1002.5
20260905064537 15 141 0.0 0.0 0.00 0.00 0.00 51 1002.3
20260905063006 15 141 0.0 0.0 0.00 0.00 0.00 52 1002.5
20260905061531 15 141 0.0 0.0 0.00 0.00 0.00 53 1002.3
20260905060019 16 141 0.0 0.0 0.00 0.00 0.00 50 1002.2
20260905054551 17 169 0.0 8.0 0.00 0.00 0.00 49 1002.2
20260905053144 17 154 0.0 3.2 0.00 0.00 0.00 49 1002.2
20260905051520 17 162 0.0 9.7 0.00 0.00 0.00 49 1002.1
20260905050055 17 144 0.0 17.7 0.00 0.00 0.00 49 1002.2